TimeCST,TemperatureF,Dew PointF,Humidity,Sea Level PressureIn,VisibilityMPH,Wind Direction,Wind SpeedMPH,Gust SpeedMPH,PrecipitationIn,Events,Conditions,WindDirDegrees,DateUTC
12:53 AM,53.1,52.0,96,29.70,6.0,Calm,Calm,-,N/A,,Clear,0,2013-12-03 06:53:00
1:53 AM,53.1,51.1,93,29.68,6.0,East,3.5,-,N/A,,Clear,100,2013-12-03 07:53:00
2:53 AM,52.0,51.1,97,29.66,6.0,Calm,Calm,-,N/A,,Clear,0,2013-12-03 08:53:00
3:53 AM,52.0,51.1,97,29.65,4.0,SE,5.8,-,N/A,,Partly Cloudy,140,2013-12-03 09:53:00
4:02 AM,53.6,51.8,94,29.65,2.5,SE,5.8,-,N/A,,Mostly Cloudy,140,2013-12-03 10:02:00
4:07 AM,53.6,53.6,100,29.65,0.8,SE,6.9,-,N/A,,Mist,140,2013-12-03 10:07:00
4:53 AM,54.0,53.1,97,29.64,0.2,SSE,6.9,-,N/A,Fog,Fog,150,2013-12-03 10:53:00
5:53 AM,54.0,54.0,100,29.64,0.2,SSE,6.9,-,0.01,Fog,Fog,150,2013-12-03 11:53:00
6:53 AM,55.0,55.0,100,29.67,0.5,SSE,8.1,-,N/A,Fog,Fog,150,2013-12-03 12:53:00
7:53 AM,55.9,55.9,100,29.66,0.8,SSE,6.9,-,N/A,,Mist,150,2013-12-03 13:53:00
8:00 AM,57.2,55.4,94,29.66,1.5,SSE,6.9,-,N/A,,Overcast,150,2013-12-03 14:00:00
8:07 AM,57.2,55.4,94,29.65,2.0,SE,5.8,-,N/A,,Overcast,140,2013-12-03 14:07:00
8:20 AM,57.2,55.4,94,29.65,3.0,SSE,6.9,-,N/A,,Overcast,150,2013-12-03 14:20:00
8:53 AM,57.9,57.0,97,29.65,4.0,South,8.1,-,N/A,,Overcast,170,2013-12-03 14:53:00
9:53 AM,61.0,57.0,87,29.67,6.0,South,8.1,-,N/A,,Overcast,180,2013-12-03 15:53:00
10:53 AM,64.0,57.0,78,29.67,10.0,South,8.1,-,N/A,,Partly Cloudy,180,2013-12-03 16:53:00
11:53 AM,69.1,57.0,65,29.63,10.0,South,10.4,-,N/A,,Clear,170,2013-12-03 17:53:00
12:53 PM,71.1,55.9,59,29.60,10.0,South,8.1,-,N/A,,Clear,190,2013-12-03 18:53:00
1:53 PM,73.0,55.0,53,29.57,10.0,South,9.2,-,N/A,,Clear,180,2013-12-03 19:53:00
2:53 PM,75.9,54.0,46,29.56,10.0,South,8.1,-,N/A,,Clear,180,2013-12-03 20:53:00
3:53 PM,75.9,55.0,48,29.55,10.0,South,8.1,-,N/A,,Clear,190,2013-12-03 21:53:00
4:53 PM,72.0,57.9,61,29.55,10.0,South,10.4,-,N/A,,Clear,170,2013-12-03 22:53:00
5:53 PM,70.0,57.9,65,29.57,10.0,South,9.2,-,N/A,,Clear,180,2013-12-03 23:53:00
6:53 PM,66.0,57.0,73,29.60,10.0,SSW,4.6,-,N/A,,Clear,210,2013-12-04 00:53:00
7:53 PM,63.0,55.9,78,29.63,10.0,Calm,Calm,-,N/A,,Clear,0,2013-12-04 01:53:00
8:53 PM,59.0,54.0,83,29.64,10.0,SSE,4.6,-,N/A,,Clear,160,2013-12-04 02:53:00
9:53 PM,60.1,57.0,90,29.65,10.0,SSE,6.9,-,N/A,,Clear,150,2013-12-04 03:53:00
10:53 PM,63.0,59.0,87,29.67,9.0,SE,5.8,-,N/A,,Clear,140,2013-12-04 04:53:00
11:53 PM,60.1,57.9,93,29.68,5.0,South,5.8,-,N/A,,Clear,180,2013-12-04 05:53:00